Regional Weather Roundup
Issued by NWS

Home | Current Version | Previous Version | Graphics & Text | Print | Product List | Glossary On
Versions: 1 2 3 4 5 6 7 8 9 10 11 12 13 14 15 16 17 18 19 20 21 22 23 24 25 26 27 28 29 30 31 32 33 34 35 36 37 38 39 40 41 42 43 44 45 46 47 48 49 50
000
ASUS43 KLOT 220804
RWRIL

ILLINOIS REGIONAL WEATHER ROUNDUP
NATIONAL WEATHER SERVICE CHICAGO/ROMEOVILLE IL
200 AM CST WED NOV 22 2017

NOTE: "FAIR" INDICATES FEW OR NO CLOUDS BELOW 12,000 FEET WITH NO
SIGNIFICANT WEATHER AND/OR OBSTRUCTIONS TO VISIBILITY.

* THESE STATIONS ARE NOT UNDER NWS QUALITY CONTROL. THEY ALSO MAY NOT
  REPORT WEATHER SUCH AS PRECIPITATION OR FOG.

ILZ001-002-007-009-015-016-024-220900-
NORTHWEST ILLINOIS

CITY           SKY/WX    TMP DP  RH WIND       PRES   REMARKS
MOLINE         CLOUDY    23  14  68 NW8       30.32R WCI  14
STERLING*      PTCLDY    22  16  78 NW6       30.31R WCI  14
SAVANNA*       CLEAR     23  13  65 NW7       30.31R WCI  15
$$

ILZ003-004-008-010-011-017-018-220900-
NORTH CENTRAL ILLINOIS

CITY           SKY/WX    TMP DP  RH WIND       PRES   REMARKS
ROCKFORD       CLEAR     22  14  71 NW9       30.30R WCI  12
FREEPORT*      CLEAR     19  14  81 W6        30.30R WCI  11
ROCHELLE*      CLEAR     20  15  80 W3        30.29R
DE KALB*       CLEAR     22  16  78 NW7       30.26R WCI  13
PERU*          CLEAR     21  17  82 NW7       30.30R WCI  13
$$

ILZ005-006-012>014-019>023-220900-
NORTHEAST ILLINOIS

CITY           SKY/WX    TMP DP  RH WIND       PRES   REMARKS
CHICAGO-OHARE  CLEAR     26  14  60 NW10      30.25R WCI  16
CHICAGO-MIDWAY NOT AVBL
AURORA         CLEAR     18  16  92 W6        30.27R WCI  10
LANSING*       CLEAR     26  17  69 NW8       30.25R WCI  17
JOLIET*        CLEAR     25  18  74 NW3       30.27R
WAUKEGAN       CLEAR     23  14  68 NW7       30.25R WCI  15
DUPAGE AIRPORT CLEAR     22  16  78 NW9       30.24R WCI  12
KANKAKEE*      CLEAR     25  17  69 NW7       30.27R WCI  18
WHEELING       CLEAR     25  16  68 NW8       30.27R WCI  16
MORRIS*        CLEAR     23  18  80 NW6       30.26S WCI  16
ROMEOVILLE*    CLEAR     23  17  78 NW6       30.26R WCI  15
NORTHERLY ISL    N/A     28  15  58 W9          N/A  WCI  19
$$

LMZ740>746-220900-
SOUTHERN LAKE MICHIGAN

STATION/POSITION SKY/WX   TEMP    WIND        PRES    VSBY  WAVE
                          AIR SEA DIR/SP/G                  HT/PER
                          (F)     (DEG/KT/KT) (MB)    (MI)  (FT/S)
SOUTHERN BUOY              31 47  340/ 16/ 19 1022.8          5/ 7
HARRISON CRIB              28     310/ 17/ 18   N/A
BURNHAM HARBOR             28     300/  8/ 13   N/A
CALUMET HARBOR             26     280/  6/ 11 1023.1R
BURNS HARBOR               32     320/ 10/ 20 1023.4R
MICHIGAN CITY              32     310/ 16/ 20   N/A
$$

ILZ025>027-034>036-040-047-049-050-058-095>099-220900-
WEST-CENTRAL ILLINOIS

CITY           SKY/WX    TMP DP  RH WIND       PRES   REMARKS
QUINCY         CLOUDY    22  16  78 NW6       30.35R WCI  14
GALESBURG*     CLOUDY    19  16  88 NW5       30.32R WCI  12
MACOMB*        CLEAR     20  17  90 NW9       30.35R WCI   9
JACKSONVILLE*  CLEAR     23  18  82 NW8       30.32S WCI  14
PITTSFIELD*    PTCLDY    24  18  78 NW8       30.35R WCI  15
$$

ILZ028>032-037-038-041>044-048-051>054-059>061-220900-
CENTRAL ILLINOIS

CITY           SKY/WX    TMP DP  RH WIND       PRES   REMARKS
PONTIAC        CLEAR     24  21  89 NW7       30.29R WCI  16
BLOOMINGTON    CLEAR     23  17  78 NW8       30.28R WCI  14
DECATUR        CLEAR     26  19  74 N8        30.28R WCI  18
PEORIA         CLEAR     24  16  71 NW5       30.31R WCI  18
LACON*         CLEAR     22  17  79 CALM      30.30R
LINCOLN*       PTCLDY    25  21  83 NW5       30.30R WCI  19
SPRINGFIELD    CLEAR     26  19  74 NW9       30.31R WCI  17
TAYLORVILLE    CLEAR     26  20  79 NW9       30.30R WCI  16
$$

ILZ033-039-045-046-055>057-062-063-220900-
EAST-CENTRAL ILLINOIS

CITY           SKY/WX    TMP DP  RH WIND       PRES   REMARKS
CHAMPAIGN      CLEAR     23  20  88 NW6       30.27R WCI  16
DANVILLE*      CLEAR     26  18  74 NW7       30.24R WCI  18
RANTOUL*       PTCLDY    28  22  81 N5        30.26R WCI  22
MATTOON        CLEAR     25  22  88 NW12      30.26R WCI  14
PARIS*         CLEAR     26  23  87 NW7       30.27R WCI  18
$$

ILZ079-100>102-220900-
SOUTHWEST ILLINOIS

CITY           SKY/WX    TMP DP  RH WIND       PRES   REMARKS
ALTON          CLEAR     27  21  77 NW5       30.32R WCI  22
BELLEVILLE     CLEAR     28  19  68 NW7       30.31R WCI  21
CAHOKIA*       CLEAR     29  18  63 N10       30.33R WCI  20
SPARTA*        CLEAR     29  21  71 NW7       30.32R WCI  22
$$

ILZ064>066-069>071-074>076-080>082-084>086-088>090-092>094-220900-
SOUTH-CENTRAL ILLINOIS

CITY           SKY/WX    TMP DP  RH WIND       PRES   REMARKS
CARBONDALE     CLEAR     28  22  78 NW6       30.30R WCI  22
CAIRO*         CLEAR     32  22  67 N9        30.28R WCI  24
EFFINGHAM*     CLEAR     29  23  78 NW8       30.29R WCI  21
MARION         CLEAR     31  22  69 NW3       30.30R
MT. VERNON     CLEAR     28  22  78 CALM      30.29R
CENTRALIA*     CLEAR     30  23  76 N10       30.28S WCI  21
SALEM*         CLEAR     28  22  77 NW5       30.29R WCI  23
METROPOLIS*    CLEAR     32  23  69 N3        30.28R
$$

ILZ067-068-072-073-078-083-087-091-220900-
SOUTHEAST ILLINOIS

CITY           SKY/WX    TMP DP  RH WIND       PRES   REMARKS
LAWRENCEVILLE  CLEAR     29  22  75 NW7       30.27R WCI  22
FLORA*         CLEAR     29  23  76 NW5       30.29R WCI  24
FAIRFIELD*     CLEAR     29  22  74 CALM      30.27R
HARRISBURG*    CLEAR     30  22  73 CALM      30.29R
ROBINSON*      CLEAR     28  23  81 NW7       30.27R WCI  21
CARMI*         CLEAR     28  23  80 NW7       30.27R WCI  21
$$

ABBREVIATIONS USED IN REMARKS
   TC - TEMPERATURE IN CELSIUS
  WCI - WIND CHILL INDEX
   HX - HEAT INDEX
  VSB - VISIBILITY
$$





USA.gov is the U.S. government's official web portal to all federal, state and local government web resources and services.